Other Public Products
Issued by NWS Grand Forks, ND

Home | Current Version | Previous Version | Graphics & Text | Print | Product List | Glossary On
Versions: 1 2 3 4 5 6 7 8 9 10 11 12 13 14 15 16 17 18 19 20 21 22 23 24 25 26 27 28 29 30 31 32 33 34 35 36 37 38 39 40 41 42 43 44 45 46 47 48 49 50
000
FPUS83 KFGF 200831
OPUFGF
PRAIRIE TO PINES WEATHER ROUNDUP
NATIONAL WEATHER SERVICE EASTERN NORTH DAKOTA/GRAND FORKS ND
300 AM CDT SUN APR 20 2014

 **SATELLITE DATA USED TO AUGMENT SKY COVER AT AUTOMATED STATIONS**
 *****  WEATHER ACROSS EASTERN NORTH DAKOTA  *****

CITY           SKY/WX    TMP DP  RH WIND       PRES   REMARKS
GRAND FORKS    CLEAR     32  29  88 S5        30.00F
GRAND FORKS AF CLEAR     30  29  99 SW3       30.00F
GRAND CITY NWS   N/A     32 N/A N/A N3          N/A
BUXTON           N/A     40  39  95 NE2         N/A
DEVILS LAKE    CLEAR     30  25  80 S3        29.98S
FARGO          CLEAR     38  33  82 CALM      30.02S
WAHPETON ARPT  SUNNY     41  34  75 E6        30.03S
$$

 *****  WEATHER ACROSS CENTRAL AND WESTERN NORTH DAKOTA  *****

CITY           SKY/WX    TMP DP  RH WIND       PRES   REMARKS
JAMESTOWN      CLEAR     31  30  96 S5        30.00F
BISMARCK       CLEAR     34  32  92 NE5       29.99F
MINOT          CLEAR     36  30  79 SE7       29.94F
MINOT AFB      CLEAR     36  33  90 S8        29.93F
GARRISON         N/A     35  31  85 E5        29.95F
WILLISTON      CLEAR     31  28  89 CALM      29.91F
DICKINSON      CLEAR     36  25  64 S12       29.92F
HETTINGER      CLEAR     29  23  78 CALM      29.96F
$$

 *****  OTHER OBSERVATIONS NORTHEAST NORTH DAKOTA  *****

CITY           SKY/WX    TMP DP  RH WIND       PRES   REMARKS
WALHALLA       FAIR      32  32 100 SW5       30.00R
LANGDON        FAIR      28  27  93 SW5       29.98R WCI  23
CAVALIER       FAIR      32  28  86 SW3       30.00S
GRAFTON        FAIR      30  30 100 CALM      30.00S
CANDO          FAIR      28  27  93 N3        29.98S
FORT TOTTEN    NOT AVBL
ROLLA          FAIR      28  28 100 CALM      30.00R
RUGBY          FAIR      28  27  93 SE6       29.97R WCI  22
 ***** THE ABOVE OBSERVATIONS ARE NON NWS ARE NOT QUALITY
        CONTROLLED AND MAY MIS-REPORT RAIN FOR SNOW...
$$

 *****  OTHER OBSERVATIONS SOUTHEAST NORTH DAKOTA *****

CITY           SKY/WX    TMP DP  RH WIND       PRES   REMARKS
COOPERSTOWN    FAIR      32  32 100 S7        30.00S
VALLEY CITY    FAIR      36  36 100 CALM      30.01F
OAKES          FAIR      32  32 100 E6        30.02S
GWINNER        SUNNY     37  37 100 CALM      30.04S
SHEYENNE NWR     N/A     35  35  98 CALM      29.95S
BUFFALO          N/A     38  33  84 E2          N/A
WYNDMERE       NOT AVBL
 ***** THE ABOVE OBSERVATIONS ARE NON NWS ARE NOT QUALITY
       CONTROLLED AND MAY MIS-REPORT RAIN FOR SNOW...
$$

  *****  WEATHER ACROSS NORTHERN MINNESOTA  *****

CITY           SKY/WX    TMP DP  RH WIND       PRES   REMARKS
FLAG ISLAND    CLEAR     34  28  80 SW3       29.98S
WARROAD        CLEAR     34  28  80 SW3       30.00F
ROSEAU         CLEAR     34  28  80 S5        30.00S
HALLOCK        CLOUDY    32  30  93 SE5       29.99S
THF RVR FALLS  CLEAR     34  30  86 CALM      30.02S
HALSTAD          N/A     33  32  96 CALM        N/A
FOSSTON        CLEAR     28  23  80 CALM      30.03S
BAUDETTE       CLEAR     35  31  85 CALM      30.00R
WASKISH        CLEAR     32  30  93 CALM      30.02S
CROOKSTON      CLEAR     34  32  93 SE3       30.02S
$$
  *****  WEATHER ACROSS CENTRAL AND WEST MINNESOTA  *****

CITY           SKY/WX    TMP DP  RH WIND       PRES   REMARKS
BEMIDJI        CLEAR     32  31  95 CALM      30.02R
PARK RAPIDS    CLEAR     35  32  88 CALM      30.02R
WADENA         CLEAR     34  30  86 CALM      30.03S
DETROIT LAKES  CLEAR     37  36  93 CALM      30.03F
MOORHEAD       CLEAR     39  37  93 SE1       30.03S
FERGUS FALLS   CLEAR     43  34  70 E5        30.01R
ELBOW LAKE     FAIR      44  37  77 NE8       30.02S
MORRIS MN      CLEAR     39  30  70 N6        30.01R
STAPLES        CLEAR     37  34  87 CALM      30.03S
WHEATON        CLEAR     45  39  81 N5        30.04F
$$
  *****  WEATHER ELSEWHERE ACROSS MINNESOTA  *****

CITY           SKY/WX    TMP DP  RH WIND       PRES   REMARKS
DULUTH         CLEAR     33  29  85 SW3       29.99S
INTRNTL FALLS  CLEAR     37  33  85 W7        29.99R
ELY            CLEAR     32  30  93 SW5       29.99S
CLOQUET        CLEAR     28  27  93 NW8       30.01R FOG     WCI  20
BRAINERD       CLEAR     44  31  60 N6        30.03R
HIBBING        CLEAR     29  27  92 CALM      30.00R FOG
ALEXANDRIA     CLEAR     45  32  60 N7        30.02R
SAINT CLOUD    CLEAR     36  34  93 CALM      30.01R FOG
MINNEAPOLIS    CLOUDY    48  48 100 S6        30.01F FOG
$$

  *****  WEATHER ACROSS SOUTH DAKOTA  *****

CITY           SKY/WX    TMP DP  RH WIND       PRES   REMARKS
SIOUX FALLS    CLOUDY    53  41  63 NE3       29.99F
BROOKINGS      NOT AVBL
WATERTOWN      PTCLDY    39  31  72 CALM      30.01R
HURON          PTCLDY    41  31  67 CALM      29.99S
SISSETON         N/A     41  36  82 NW7       30.03S
ABERDEEN       CLEAR     40  34  79 NE8       30.01S
MITCHELL       CLEAR     41  28  60 CALM      30.00S
PIERRE         PTCLDY    36  26  67 CALM      29.98F
MOBRIDGE       CLEAR     38  29  70 SE3       29.96F
RAPID CITY     PTCLDY    41  28  60 S5        29.96F
$$

  *****  SOME WEATHER IN NEARBY STATES *****

CITY           SKY/WX    TMP DP  RH WIND       PRES   REMARKS
GLASGOW MT     CLOUDY    42  30  62 SE14      29.83F
GREAT FALLS MT MOCLDY    48  24  39 W15       29.86R
CHEYENNE WY    PTCLDY    46  39  76 SW12      30.06F
SCOTTSBLUFF NE PTCLDY    47  35  63 E8        30.01F
OMAHA NE       MOCLDY    64  44  48 S16       29.99S
DES MOINES IA  MOCLDY    61  44  53 S7        30.06S
DAVENPORT IA   PTCLDY    54  38  54 S10       30.16S
CHICAGO IL     PTCLDY    47  30  51 S7        30.22F
EAU CLAIRE WI  CLOUDY    53  46  77 CALM      30.03R
LA CROSSE WI   CLOUDY    62  38  40 S13       30.05S
$$

  *****  SOME NATIONAL WEATHER *****

CITY           SKY/WX    TMP DP  RH WIND       PRES   REMARKS
LA GUARDIA NY  MOCLDY    47  34  60 NE12      30.41R
RALEIGH NC     CLOUDY    52  37  56 NE8       30.20R
ATLANTA GA     PTCLDY    53  42  66 NE15      30.16R
NEW ORLEANS LA CLEAR     61  57  87 W3        30.11S
OKLAHOMA CITY  MOCLDY    56  49  77 S8        30.10F
ALBUQUERQUE NM CLOUDY    50  46  86 SE6       30.13F
SALT LAKE CITY PTCLDY    54  35  48 S6        30.00S
LOS ANGELES CA PTCLDY    61  55  81 N5        30.06R
BOISE ID       MOCLDY    54  28  36 NW28G38   30.08R
SEATTLE WA     PTCLDY    46  43  89 SW18      30.20R
$$

*** WEATHER ACROSS MANITOBA...SASKATCHEWAN AND ONTARIO ***
                ***ONTARIO***

CITY           SKY/WX    TMP DP  RH WIND       PRES   REMARKS
GERALDTON      CLEAR     32  30  93 S8        29.99F WCI  25
THUNDER BAY    FOG       25  25 100 W5        30.01F VSB 1/2 WCI  19
SIOUX LOOKOUT  CLOUDY    36  34  93 SW5       29.93
TORONTO        CLEAR     37  27  65 E5        30.41S
BIG TROUT LK   NOT AVBL
PICKLE LAKE    NOT AVBL
DRYDEN         CLOUDY    37  32  81 W13G23    29.94R
KENORA         PTCLDY    34  28  80 SW6       29.96R
$$
                *** MANITOBA***

CITY           SKY/WX    TMP DP  RH WIND       PRES   REMARKS
BRANDON        NOT AVBL
DAUPHIN        CLOUDY    36  28  75 W10       29.95R
ISLAND LAKE    FLURRIES  34  34 100 W10       29.73R
PILOT MOUND      N/A     30  28  93 W3          N/A
THE PAS        PTCLDY    27  27 100 NW10      29.89R WCI  17
THOMPSON       LGT SNOW  30  30 100 N6        29.80R WCI  24
WINNIPEG       CLEAR     32  28  86 W7        29.99R
LYNN LAKE      CLOUDY    28  25  86 NW5       29.87R WCI  23
CHURCHILL      MOCLDY    18  14  86 E10       29.95S WCI   6
GILLAM         FLURRIES  30  30 100 NE5       29.79S
$$
                ***SASKATCHEWAN***

CITY           SKY/WX    TMP DP  RH WIND       PRES   REMARKS
ESTEVAN        CLEAR     32  32 100 E7        29.92F
KINDERSLEY     CLOUDY    37  32  81 SE13      29.78F
LLOYDMINSTER   CLOUDY    36  30  80 SE13      29.78S
PRINCE ALBERT  CLEAR     27  27 100 CALM      29.88F
REGINA         CLEAR     27  27 100 E6        29.91F WCI  20



USA.gov is the U.S. government's official web portal to all federal, state and local government web resources and services.